Location: D?ubnia
(50.0978°N, 20.0410°E)
Time: 08:04:01
(UTC+00:00)

Daily predictions for brighter satellites

Satellite Brightness Start Highest point End
(mag) Time Altitude Azimuth Time Altitude Azimuth Time Altitude Azimuth
STARLINK-1112 3.7 19:14:47 10° WNW 19:18:58 88° NNE 19:23:07 10° ESE
STARLINK-1143 3.6 19:16:14 10° SW 19:20:20 67° SSE 19:24:28 10° ENE
STARLINK-1204 4.2 19:18:58 10° W 19:23:05 63° NNW 19:27:14 10° ENE
STARLINK-1128 3.6 19:19:46 10° WNW 19:23:56 88° SSW 19:28:05 10° ESE
STARLINK-1209 3.9 19:21:57 10° WNW 19:25:10 49° N 19:28:24 10° E
STARLINK-1241 3.6 19:21:14 10° WSW 19:25:21 71° SSE 19:29:29 10° ENE
Cosmos 1300 Rocket 3.8 19:21:50 10° NNW 19:26:18 75° W 19:30:43 10° S
STARLINK-1238 4.2 19:23:59 10° W 19:28:07 62° N 19:32:14 10° ENE
STARLINK-1113 3.6 19:24:45 10° WNW 19:28:55 84° SSW 19:33:04 10° ESE
deb Kosmos-1763 4.2 19:25:27 10° NNW 19:29:02 63° ENE 19:32:36 10° SE
STARLINK-1239 3.6 19:26:10 10° WSW 19:30:18 75° SSE 19:34:28 10° ENE
NOSS 8 (E) 4.3 19:27:26 10° SSW 19:30:33 49° SE 19:33:32 10° NE
USA 215 4.2 19:25:01 10° ENE 19:31:17 49° N 19:37:31 10° WNW
Meteor 1-15 Rocket 4.5 19:27:01 10° N 19:32:57 67° ENE 19:38:50 10° SSE
STARLINK-1201 4.2 19:28:59 10° W 19:33:05 61° N 19:37:13 10° ENE
Aureole 2 Rocket 2.7 19:30:14 10° S 19:33:07 36° ESE 19:35:54 10° NE
NOSS 2-2 (D) 4.3 19:30:41 10° S 19:33:35 23° ESE 19:36:43 10° ENE
CENTAUR R/B 3.8 19:26:21 10° NW 19:33:46 50° NNE 19:42:04 10° ESE
STARLINK-1119 3.6 19:29:46 10° WNW 19:33:55 80° SSW 19:38:03 10° ESE
Cosmos 1437 Rocket 2.7 19:31:11 10° S 19:34:55 62° E 19:38:43 10° NNE
STARLINK-1240 3.6 19:31:07 10° WSW 19:35:16 79° SSE 19:39:26 10° ENE
ATLAS 3B R/B 4.1 19:30:45 10° NW 19:36:42 32° NNE 19:42:47 10° E
Lacrosse 5 3.2 19:33:25 10° WNW 19:37:49 30° SW 19:42:10 10° S
STARLINK-1206 4.3 19:34:00 10° W 19:38:07 60° N 19:42:13 10° ENE
Cosmos 304 Rocket 4.0 19:33:38 10° S 19:38:15 51° ESE 19:42:54 10° NNE
Cosmos 1378 4.3 19:35:19 10° SSE 19:38:25 26° E 19:41:32 10° NNE
STARLINK-1114 3.6 19:34:43 10° WNW 19:38:52 77° SSW 19:43:01 10° ESE
STARLINK-1203 3.6 19:35:43 10° WSW 19:39:55 83° SSE 19:44:08 10° ENE
STARLINK-1216 3.6 19:36:05 10° WSW 19:40:14 82° SSE 19:44:24 10° ENE
ISS -1.6 19:39:01 10° W 19:41:17 17° SW 19:43:33 10° S
CZ-2C R/B 3.7 19:36:18 10° N 19:41:44 52° WNW 19:47:10 10° SW
STARLINK-1205 4.3 19:38:59 10° W 19:43:05 59° N 19:47:12 10° ENE
STARLINK-1130 (DARKSAT) 3.6 19:39:43 10° WNW 19:43:52 73° SSW 19:47:58 10° ESE
STARLINK-1237 3.6 19:41:03 10° WSW 19:45:13 86° SSE 19:49:23 10° ENE
STARLINK-1218 4.3 19:44:00 10° W 19:48:05 58° N 19:52:12 10° ENE
Cosmos 1674 Rocket 3.5 19:44:02 10° S 19:48:24 76° E 19:52:50 10° NNE
Meteor 2-4 Rocket 4.5 19:43:31 10° SSW 19:48:44 53° WNW 19:54:01 10° N
STARLINK-1084 3.7 19:44:42 10° WNW 19:48:50 69° SSW 19:52:46 11° SE
STARLINK-1202 3.6 19:46:02 10° WSW 19:50:12 90° SW 19:54:22 10° ENE
NOSS 2-2 (E) 3.6 19:47:19 10° SSW 19:50:43 41° ESE 19:54:34 10° NE
Cosmos 1378 Rocket 3.6 19:47:00 10° S 19:51:20 63° E 19:55:40 10° NNE
EXPRESS MD2 3.8 19:48:48 10° SW 19:51:53 43° SSE 19:57:36 10° ENE
Cosmos 1833 Rocket 4.4 19:48:17 10° NW 19:52:54 27° WSW 19:57:31 10° SSW
SL-27 R/B 3.9 19:49:51 10° N 19:52:58 27° ENE 19:55:55 11° ESE
STARLINK-1254 4.3 19:48:59 10° W 19:53:05 57° N 19:57:11 10° ENE
STARLINK-1098 3.7 19:49:41 10° WNW 19:53:48 65° SSW 19:57:33 12° SE
Cosmos 1766 3.9 19:50:15 10° N 19:54:05 43° ENE 19:57:24 13° SE
Cosmos 2297 3.7 19:49:57 10° SSW 19:55:33 66° ESE 20:01:15 10° NNE
Cosmos 1943 Rocket 2.9 19:51:11 10° SSE 19:56:02 32° ESE 20:00:58 10° NE
Cosmos 1900 4.4 19:52:21 10° NW 19:57:24 79° NE 20:01:59 13° SE
STARLINK-1231 4.3 19:53:58 10° W 19:58:04 57° N 20:02:10 10° ENE
STARLINK-1123 3.8 19:54:39 10° WNW 19:58:45 61° SSW 20:02:19 13° SE
Cosmos 2082 Rocket 3.4 19:54:31 10° NW 19:59:45 38° WSW 20:04:56 10° S
IGS 5A 3.8 19:55:53 10° S 20:00:00 65° WSW 20:04:10 10° NNW
STARLINK-1246 3.7 19:56:01 10° WSW 20:00:11 83° NNW 20:04:21 10° ENE
Cosmos 1452 Rocket 4.2 19:57:02 10° SW 20:02:15 59° WNW 20:07:30 10° NNE
Cosmos 332 Rocket 4.2 19:57:35 10° SSW 20:02:28 69° WNW 20:07:23 10° NNE
BREEZE-M DEB 3.5 20:00:24 10° SSW 20:02:41 28° SE 20:07:20 10° ENE
Landsat 7 4.2 19:58:17 10° S 20:03:00 64° WSW 20:07:45 10° NNW
STARLINK-1232 4.3 19:58:59 10° W 20:03:05 56° N 20:07:11 10° ENE
SeaSat 1 4.4 20:02:27 10° E 20:03:25 11° E 20:04:24 10° ESE
STARLINK-1097 3.8 19:59:40 10° WNW 20:03:45 57° SSW 20:07:07 14° SE
STARLINK-1224 3.7 20:00:59 10° WSW 20:05:09 80° NNW 20:09:19 10° ENE
Meteor 1-23 Rocket 4.2 20:01:00 10° S 20:06:42 84° E 20:12:22 10° NNE
STARLINK-1208 4.3 20:03:58 10° W 20:08:03 56° N 20:12:09 10° ENE
STARLINK-1099 3.9 20:04:39 10° WNW 20:08:42 54° SSW 20:11:54 15° SE
Cosmos 1461 3.0 20:04:54 10° SW 20:09:05 83° NW 20:13:31 10° NE
STARLINK-1225 3.8 20:05:59 10° WSW 20:10:09 77° NNW 20:14:19 10° ENE
SAR-Lupe-2 3.9 20:06:33 10° N 20:10:10 70° WNW 20:13:44 10° SSW
Cosmos 1975 Rocket 3.8 20:07:29 14° SSE 20:10:51 37° E 20:14:54 10° NNE
Cosmos 2369 Rocket 3.0 20:07:22 12° SSE 20:11:57 32° ESE 20:16:53 10° NE
STARLINK-1271 4.3 20:09:00 10° W 20:13:05 56° N 20:17:11 10° E
STARLINK-1104 4.0 20:09:37 10° WNW 20:13:39 50° SSW 20:16:40 17° SE
STARLINK-1212 3.5 20:12:02 10° WNW 20:15:07 55° NNE 20:18:11 10° E
STARLINK-1230 3.8 20:10:59 10° WSW 20:15:08 74° NNW 20:19:17 10° ENE
NOSS 2-2 (C) 3.2 20:11:45 10° SSW 20:15:14 57° SE 20:19:13 10° NE
STARLINK-1105 3.5 20:12:31 10° WNW 20:15:36 55° NNE 20:18:39 10° E
STARLINK-1247 3.5 20:13:23 10° WNW 20:16:29 56° NNE 20:19:34 10° E
STARLINK-1227 3.5 20:13:53 10° WNW 20:16:58 56° NNE 20:20:02 10° E
STARLINK-1226 3.5 20:14:44 10° WNW 20:17:49 56° NNE 20:20:54 10° E
STARLINK-1154 4.3 20:13:59 10° W 20:18:05 56° N 20:22:10 10° E
STARLINK-1144 4.1 20:14:38 10° WNW 20:18:37 47° SSW 20:21:27 18° SE
STARLINK-1215 3.5 20:15:38 10° WNW 20:18:44 57° NNE 20:21:49 10° E
SPOT 5 3.1 20:14:18 13° SSE 20:19:02 86° WSW 20:24:26 10° NNW
ATLAS 2AS CENTAUR R/B 3.9 20:13:12 11° SSE 20:19:16 29° ESE 20:25:46 10° NE
STARLINK-1243 3.9 20:15:59 10° W 20:20:08 72° NNW 20:24:17 10° ENE
STARLINK-1217 3.4 20:17:27 10° WNW 20:20:33 57° NNE 20:23:38 10° E
NOSS 3-2 (A) 4.1 20:13:10 10° NW 20:20:35 85° SW 20:27:48 15° SE
Cosmos 2026 Rocket 4.4 20:15:52 13° SSE 20:21:10 49° E 20:27:15 10° NNE
STARLINK-1229 3.4 20:18:22 10° WNW 20:21:28 58° NNE 20:24:33 10° E
Meteor 1-22 Rocket 4.3 20:16:05 10° N 20:22:03 78° ENE 20:26:47 15° SSE
STARLINK-1270 3.4 20:19:16 10° WNW 20:22:22 58° NNE 20:25:27 10° E
OPS 6432 4.5 20:19:18 10° NW 20:22:24 68° SW 20:24:59 19° SSE
STARLINK-1197 4.3 20:18:58 10° WNW 20:23:03 56° N 20:27:09 10° E
ATLAS CENTAUR R/B 3.6 20:23:28 10° ESE 20:23:28 10° ESE 20:24:09 10° E
STARLINK-1103 4.1 20:19:37 10° WNW 20:23:34 44° SW 20:26:13 19° SSE
STARLINK-1189 3.4 20:21:03 10° WNW 20:24:09 59° NNE 20:27:15 10° E
ERS-1 Rocket 3.2 20:19:40 12° S 20:24:16 68° WSW 20:29:20 10° NNW
STARLINK-1188 3.4 20:21:58 10° WNW 20:25:04 60° NNE 20:28:10 10° E
STARLINK-1236 3.9 20:20:58 10° W 20:25:06 70° NNW 20:29:15 10° ENE
STARLINK-1187 3.2 20:23:03 10° WNW 20:26:08 63° NNE 20:29:05 11° E
STARLINK-1191 3.3 20:24:25 10° WNW 20:27:30 61° NNE 20:30:32 10° E
STARLINK-1198 4.3 20:23:57 10° WNW 20:28:03 56° N 20:32:08 10° E
STARLINK-1221 3.3 20:25:22 10° WNW 20:28:28 61° NNE 20:31:27 11° E
STARLINK-1101 4.2 20:24:36 10° WNW 20:28:32 41° SW 20:31:00 20° SSE
Okean 2 3.5 20:25:56 16° S 20:29:09 61° E 20:33:17 10° NNE
STARLINK-1222 3.3 20:26:13 10° WNW 20:29:19 61° NNE 20:32:16 11° E
Cosmos 1066 Rocket 4.4 20:24:30 10° SSW 20:29:51 68° WNW 20:35:13 10° N
STARLINK-1214 3.3 20:27:07 10° WNW 20:30:12 62° NNE 20:33:08 11° E
USA 238 DEB 3.9 20:25:16 10° NW 20:32:27 76° SW 20:38:25 17° SSE
USA 238 3.9 20:25:22 10° NW 20:32:33 77° SW 20:38:32 17° SSE
Cosmos 1953 4.2 20:29:39 10° NNE 20:32:36 19° ENE 20:35:00 12° ESE
STARLINK-1199 4.3 20:28:58 10° WNW 20:33:04 57° N 20:37:10 10° E
STARLINK-1102 4.3 20:29:37 10° WNW 20:33:29 38° SW 20:35:47 21° SSE
Okean 1 Rocket 4.1 20:29:27 10° NNW 20:33:40 42° W 20:37:51 10° SSW
Cosmos 968 Rocket 3.9 20:28:41 10° NNW 20:33:45 54° ENE 20:37:31 17° SE
Cosmos 1805 3.6 20:30:11 10° NNW 20:34:04 60° W 20:37:07 16° S
Cosmos 1470 3.6 20:30:38 10° N 20:34:17 38° ENE 20:36:30 20° SE
STARLINK-1228 3.3 20:31:11 10° WNW 20:34:41 77° NNE 20:37:42 13° ESE
Resurs 01 Rocket 4.2 20:32:24 10° WSW 20:34:49 14° W 20:37:13 10° NW
STARLINK-1269 4.0 20:30:58 10° W 20:35:05 66° NNW 20:39:14 10° ENE
Cosmos 2278 Rocket 4.4 20:30:59 10° WSW 20:35:51 28° NW 20:40:44 10° NNE
Nadezhda 4 Rocket 4.3 20:30:09 10° SSW 20:36:16 69° WNW 20:42:24 10° N
STARLINK-1235 3.1 20:34:48 10° WNW 20:38:02 76° NNE 20:40:36 15° ESE
STARLINK-1210 4.3 20:33:57 10° WNW 20:38:03 57° N 20:42:09 10° E
STARLINK-1111 4.4 20:34:37 10° WNW 20:38:26 36° SW 20:40:34 21° SSE
Cosmos 1455 Rocket 3.1 20:35:06 10° N 20:39:28 71° ENE 20:42:18 21° SSE
STARLINK-1200 4.1 20:35:56 10° W 20:40:03 64° NNW 20:44:12 10° ENE
STARLINK-1219 4.2 20:38:56 10° WNW 20:43:02 58° N 20:47:08 10° E
SL-8 R/B 4.5 20:39:24 10° W 20:43:47 35° SSW 20:46:16 21° SSE
STARLINK-1192 4.1 20:40:57 10° W 20:45:04 63° N 20:49:12 10° ENE
ATLAS CENTAUR R/B 3.5 20:46:14 10° NNW 20:47:11 13° N 20:48:14 10° NE
Cosmos 1758 3.9 20:43:28 10° N 20:47:25 47° ENE 20:49:40 23° SE
Terra 2.1 20:44:22 17° S 20:47:58 64° WSW 20:52:43 10° NNW
STARLINK-1211 4.2 20:43:56 10° WNW 20:48:03 59° N 20:52:09 10° E
ATLAS 3B CENTAUR R/B 4.4 20:43:22 10° SW 20:48:54 15° SSW 20:50:57 14° S
SL-4 R/B 3.0 20:45:04 10° SSW 20:49:22 34° SE 20:53:44 10° E
STARLINK-1244 4.2 20:45:57 10° W 20:50:04 61° N 20:54:11 10° ENE
Cosmos 1842 3.2 20:48:52 20° S 20:51:29 80° E 20:55:24 10° NNE
Abrixas rocket 4.1 20:50:21 10° WSW 20:51:50 14° SW 20:51:50 14° SW
STARLINK-1245 4.2 20:48:55 10° WNW 20:53:02 60° N 20:57:08 10° E
Cosmos 1503 Rocket 4.4 20:48:20 10° NNW 20:53:35 58° ENE 20:57:15 20° SE
STARLINK-1138 4.2 20:50:57 10° W 20:55:04 60° N 20:59:10 10° ENE
STARLINK-1234 2.9 20:52:34 10° WNW 20:55:51 86° SSW 20:57:44 23° ESE
STARLINK-1233 4.1 20:53:53 10° WNW 20:58:00 61° N 21:02:07 10° E
STARLINK-1143 4.2 20:55:55 10° W 21:00:02 59° N 21:04:09 10° ENE
Cosmos 2263 4.4 20:57:25 18° S 21:01:29 53° ESE 21:06:56 10° NE
STARLINK-1209 2.9 20:58:32 10° WNW 21:01:50 77° SSW 21:03:26 28° ESE
STARLINK-1204 4.1 20:58:53 10° WNW 21:03:01 62° N 21:07:07 10° E
STARLINK-1241 4.3 21:00:58 10° W 21:05:03 58° N 21:09:10 10° ENE
Cosmos 1733 4.3 21:03:33 10° NNW 21:07:05 37° W 21:09:32 17° SSW
STARLINK-1238 4.0 21:03:53 10° WNW 21:08:01 64° NNE 21:12:08 10° E
STARLINK-1239 4.3 21:05:57 10° W 21:10:03 57° N 21:14:09 10° ENE
Cosmos 1536 Rocket 4.0 21:08:36 26° SSE 21:10:37 45° E 21:14:48 10° NNE
Meteor 1-21 4.2 21:07:51 18° S 21:12:05 84° E 21:17:44 10° NNE
COSMOS 2455 3.7 21:09:44 22° SSE 21:12:27 32° ESE 21:17:44 10° NE
Cosmos 1354 Rocket 4.1 21:07:35 10° NNW 21:12:54 72° ENE 21:16:12 24° SE
STARLINK-1201 4.0 21:08:52 10° WNW 21:13:01 65° NNE 21:17:08 10° E
USA 215 3.5 21:07:21 10° ESE 21:13:53 71° NNE 21:20:24 10° WNW
JB-3 4.4 21:09:52 10° NNE 21:14:04 87° WNW 21:16:37 22° SSW
STARLINK-1240 4.3 21:10:56 10° W 21:15:02 57° N 21:19:08 10° ENE
Cosmos 1486 Rocket 4.3 21:09:49 10° NNW 21:15:03 61° WSW 21:18:13 23° S
Cosmos 1833 4.2 21:10:01 10° NNW 21:15:42 89° WSW 21:19:13 24° SSE
Cosmos 1302 Rocket 4.3 21:10:45 10° SSW 21:16:02 69° WNW 21:21:21 10° NNE
Cosmos 1271 Rocket 2.7 21:14:22 29° S 21:16:12 68° E 21:20:08 10° NNE
Cosmos 1544 Rocket 3.7 21:11:55 10° NNW 21:16:14 69° W 21:18:39 25° S
Spot 4 4.0 21:14:22 25° SSE 21:17:12 69° ENE 21:22:02 10° N
Cosmos 1242 Rocket 2.6 21:15:26 25° SSW 21:17:26 81° WNW 21:21:09 10° N
Cosmos 2297 Rocket 4.3 21:13:45 10° N 21:17:58 21° NE 21:22:11 10° E
STARLINK-1206 3.9 21:13:52 10° WNW 21:18:01 67° NNE 21:22:09 10° E
STARLINK-1203 4.3 21:15:46 10° W 21:19:55 57° N 21:24:05 10° ENE
STARLINK-1216 4.3 21:15:55 10° W 21:20:01 56° N 21:24:07 10° ENE
STARLINK-60 3.0 21:20:10 32° SSW 21:21:16 49° SSE 21:24:22 10° ENE
STARLINK-1205 3.9 21:18:50 10° WNW 21:22:59 69° NNE 21:27:07 10° E
STARLINK-1237 4.3 21:20:55 10° W 21:25:01 56° N 21:29:07 10° ENE
CENTAUR R/B 3.3 21:17:06 10° NW 21:25:02 69° SW 21:31:08 22° SSE
Cosmos 1707 2.7 21:24:35 32° S 21:26:17 71° E 21:30:10 10° NNE
STARLINK-1218 3.8 21:23:50 10° WNW 21:27:59 71° NNE 21:32:08 10° E
SL-27 R/B 4.0 21:24:58 10° NW 21:28:02 27° WSW 21:29:28 20° SW
ATLAS 3B R/B 2.8 21:21:35 10° NW 21:28:22 78° NE 21:33:56 17° SE
STARLINK-1202 4.3 21:25:56 10° W 21:30:01 56° N 21:34:07 10° ENE
NOSS 3-2 (C) 4.3 21:22:51 10° NW 21:30:11 58° WSW 21:35:37 23° SSE
Cosmos 1726 2.2 21:27:43 10° N 21:31:27 64° ENE 21:32:50 35° SSE
ALOS 2 3.2 21:30:24 25° SE 21:32:40 49° ENE 21:36:55 10° N
Meteor 1-16 Rocket 4.3 21:27:16 10° N 21:32:47 66° ENE 21:35:51 26° SSE
STARLINK-1254 3.8 21:28:49 10° WNW 21:32:58 74° NNE 21:37:06 10° ESE
Cosmos 1867 3.6 21:29:37 10° NW 21:35:05 72° SW 21:38:07 27° SSE
COSMOS 2487 2.5 21:32:25 10° NNW 21:35:53 71° ENE 21:37:03 39° SE
STARLINK-1231 3.7 21:33:47 10° WNW 21:37:57 77° NNE 21:41:52 11° ESE
Cosmos 1992 Rocket 3.9 21:36:08 22° SSW 21:39:30 82° ESE 21:44:45 10° NNE
Cosmos 1943 Rocket 3.0 21:34:12 10° SW 21:39:36 50° NW 21:45:04 10° NNE
STARLINK-1246 4.3 21:35:56 10° WNW 21:40:02 56° N 21:44:07 10° E
NOSS 3-4 (A) 3.4 21:36:32 17° SSW 21:41:07 65° SE 21:47:27 10° NE
NOSS 3-4 (C) 3.4 21:36:40 17° SSW 21:41:14 64° SE 21:47:32 10° NE
SeaSat 1 2.5 21:36:52 10° NE 21:41:48 65° ESE 21:44:34 26° SSW
Cosmos 1606 Rocket 4.3 21:38:20 10° N 21:42:27 41° ENE 21:44:29 25° SE
EO 1 Del DPAF 3.2 21:38:58 10° NNE 21:42:46 80° WNW 21:44:29 31° SSW
STARLINK-1232 3.7 21:38:47 10° WNW 21:42:57 79° NNE 21:46:40 13° ESE
STARLINK-1224 4.3 21:40:55 10° WNW 21:45:01 56° N 21:49:06 10° E
STARLINK-1208 3.6 21:43:45 10° WNW 21:47:54 82° NNE 21:51:25 14° ESE
Cosmos 2315 Rocket 4.2 21:42:14 10° N 21:48:25 63° ENE 21:52:08 25° SSE
STARLINK-1225 4.3 21:45:56 10° WNW 21:50:02 57° N 21:54:07 10° E
STARLINK-1212 3.2 21:47:56 10° WNW 21:50:47 44° SW 21:50:47 44° SW
STARLINK-29 3.5 21:51:41 40° ESE 21:51:41 40° ESE 21:54:14 10° ENE
Meteor 2-10 4.1 21:46:08 10° NNW 21:51:10 67° W 21:53:43 29° S
STARLINK-1105 3.3 21:48:24 10° WNW 21:51:13 44° SW 21:51:13 44° SW
STARLINK-1247 3.3 21:49:17 10° WNW 21:52:06 43° SW 21:52:06 43° SW
STARLINK-1227 3.3 21:49:46 10° WNW 21:52:32 43° SW 21:52:32 43° SW
STARLINK-1271 3.6 21:48:45 10° WNW 21:52:55 86° NNE 21:56:14 16° ESE
BREEZE-M DEB (TANK) 2.9 21:43:25 10° W 21:53:30 81° S 21:56:36 10° E
STARLINK-1226 3.4 21:50:38 10° WNW 21:53:24 42° SW 21:53:24 42° SW
BREEZE-M DEB (TANK) 2.8 21:50:29 10° W 21:54:00 65° SSW 21:58:28 10° ESE
S3M 4.2 21:48:18 10° NNW 21:54:25 66° W 21:58:10 25° S
STARLINK-1215 3.4 21:51:32 10° WNW 21:54:16 41° SW 21:54:16 41° SW
RESURS DK-1 3.5 21:53:56 26° SE 21:54:35 28° ESE 21:58:08 10° NE
STARLINK-1230 4.3 21:50:55 10° WNW 21:55:00 57° N 21:59:07 10° E
Cosmos 2227 Rocket 3.9 21:50:21 10° NNW 21:55:16 29° NE 22:00:10 10° ESE
Cosmos 2369 Rocket 2.9 21:50:14 10° SW 21:55:46 52° NW 22:01:18 10° NNE
STARLINK-1217 3.5 21:53:21 10° WNW 21:56:00 40° SW 21:56:00 40° SW
STARLINK-1229 3.5 21:54:16 10° WNW 21:56:54 39° SW 21:56:54 39° SW
STARLINK-1154 3.5 21:53:44 10° WNW 21:57:54 89° NNE 22:01:00 17° ESE
STARLINK-1270 3.6 21:55:10 10° WNW 21:57:45 38° SW 21:57:45 38° SW
STARLINK-1189 3.6 21:56:58 10° WNW 21:59:29 36° SW 21:59:29 36° SW
STARLINK-1243 4.2 21:55:55 10° WNW 22:00:02 58° N 22:04:07 10° E
STARLINK-1188 3.7 21:57:52 10° WNW 22:00:22 36° WSW 22:00:22 36° WSW
Cosmos 1340 Rocket 3.0 21:56:59 10° NNW 22:01:01 64° W 22:02:31 36° SSW
ATLAS CENTAUR R/B 1.3 21:59:35 30° SSW 22:01:36 71° SE 22:05:41 10° NE
STARLINK-1187 4.0 21:59:01 10° W 22:01:14 30° WSW 22:01:14 30° WSW
Cosmos 1626 3.8 22:01:28 19° ESE 22:02:23 21° E 22:05:12 10° NE
STARLINK-1197 3.5 21:58:41 10° WNW 22:02:51 87° SSW 22:05:46 19° ESE
Aureole 3 2.6 21:59:37 10° NNW 22:02:54 83° WSW 22:03:24 58° S
STARLINK-1191 3.8 22:00:20 10° WNW 22:02:40 33° WSW 22:02:40 33° WSW
Thor Agena Rocket 4.0 21:58:12 10° N 22:03:27 60° WNW 22:07:12 19° SW
STARLINK-1221 3.9 22:01:17 10° WNW 22:03:35 32° WSW 22:03:35 32° WSW
STARLINK-1236 4.2 22:00:54 10° WNW 22:05:00 58° N 22:09:06 10° E
STARLINK-1222 3.9 22:02:08 10° WNW 22:04:23 31° WSW 22:04:23 31° WSW
Cosmos 1025 Rocket 3.8 22:02:58 21° SW 22:05:27 45° WNW 22:09:37 10° N
STARLINK-1214 3.9 22:03:02 10° WNW 22:05:15 31° WSW 22:05:15 31° WSW
Cosmos 1908 3.2 22:02:18 10° N 22:06:07 74° E 22:07:21 40° SSE
Nimbus 7 Rocket 4.4 22:00:23 10° NNE 22:06:30 80° ESE 22:10:05 26° S
Meteor 2-19 Rocket 4.4 22:03:38 26° S 22:07:21 86° W 22:13:31 10° N
EXPRESS MD2 4.5 22:03:12 10° W 22:07:48 89° SSW 22:17:52 10° E
STARLINK-1198 3.5 22:03:40 10° WNW 22:07:50 83° SSW 22:10:32 21° ESE
Cosmos 1953 3.0 22:05:25 10° NNW 22:09:14 43° W 22:10:41 30° SW
Cosmos 1656 Rocket 3.8 22:04:50 17° SW 22:09:16 72° WNW 22:14:51 10° NNE
ATLAS 2AS CENTAUR R/B 3.1 22:01:31 10° SW 22:09:33 88° NW 22:17:31 10° NE
BREEZE M DEB (TANK) 3.1 22:07:08 10° W 22:08:33 27° W 22:08:33 27° W
BREEZE-M DEB (TANK) 4.2 22:01:36 10° WNW 22:10:39 35° SW 22:11:56 30° SSW
STARLINK-1228 4.4 22:08:38 10° W 22:11:08 27° SW 22:11:08 27° SW
STARLINK-1199 3.5 22:08:40 10° WNW 22:12:50 79° SSW 22:15:20 23° ESE
Cosmos 2292 Rocket 3.1 22:13:24 40° SSW 22:14:32 69° W 22:17:41 10° N
STARLINK-1269 4.1 22:10:53 10° WNW 22:15:00 60° N 22:19:07 10° E
Landsat 4 4.5 22:11:43 10° NNE 22:15:12 36° E 22:16:01 32° SE
STARLINK-1210 3.5 22:13:39 10° WNW 22:17:48 76° SSW 22:20:06 25° SE
FALCON 9 R/B 4.3 22:19:35 16° SE 22:19:35 16° SE 22:23:48 10° ESE
KORONAS-FOTON 3.7 22:17:21 43° S 22:18:29 75° E 22:22:21 10° NNE
Cosmos 1655 Rocket 4.4 22:15:01 20° SSW 22:19:23 56° WNW 22:25:35 10° N
SL-4 R/B 2.5 22:20:18 24° WNW 22:20:18 24° WNW 22:21:40 10° NW
STARLINK-1200 4.1 22:15:51 10° WNW 22:19:58 62° N 22:24:06 10° E
Cosmos 1777 Rocket 3.9 22:15:26 10° NNW 22:20:41 84° WSW 22:23:18 31° SSE
STARLINK-1219 3.5 22:18:37 10° WNW 22:22:45 72° SSW 22:24:52 27° SE
ATLAS 5 CENTAUR R/B 1.2 22:21:46 20° WSW 22:23:52 68° NW 22:25:58 10° NE
STARLINK-1192 4.1 22:20:51 10° WNW 22:24:59 63° N 22:29:07 10° E
Cosmos 1892 Rocket 3.8 22:25:06 34° SSE 22:26:42 55° E 22:30:59 10° NNE
STARLINK-52 2.8 22:26:27 58° SSW 22:26:56 72° SSE 22:30:08 10° ENE
Cosmos 2228 2.9 22:22:48 10° NNW 22:27:04 75° W 22:28:36 38° S
STARLINK-1211 3.5 22:23:37 10° WNW 22:27:45 68° SSW 22:29:40 30° SE
Cosmos 1726 Rocket 3.4 22:23:30 10° N 22:27:51 89° W 22:29:31 37° S
SL-4 R/B 2.3 22:23:58 10° WSW 22:28:49 87° SSE 22:33:40 10° ENE
STARLINK-1244 4.0 22:25:50 10° WNW 22:29:57 65° N 22:34:06 10° E
ERBS 4.4 22:28:23 10° NW 22:31:21 29° NNE 22:34:19 10° ENE
STARLINK-1261 4.5 22:32:58 23° E 22:32:58 23° E 22:34:33 10° E
STARLINK-1325 4.5 22:33:19 23° E 22:33:19 23° E 22:34:55 10° E
Cosmos 1300 3.3 22:28:25 10° N 22:32:09 48° ENE 22:33:33 31° SE
STARLINK-1338 4.2 22:32:46 32° SE 22:32:46 32° SE 22:35:44 10° ENE
STARLINK-1333 4.5 22:33:40 23° E 22:33:40 23° E 22:35:17 10° E
STARLINK-1245 3.5 22:28:35 10° WNW 22:32:42 64° SSW 22:34:26 32° SE
STARLINK-1334 4.4 22:33:58 24° E 22:33:58 24° E 22:35:36 10° E
STARLINK-1326 4.4 22:34:18 24° E 22:34:18 24° E 22:35:57 10° E
Cosmos 921 Rocket 3.5 22:31:52 34° SSE 22:33:10 44° ESE 22:37:20 10° NNE
In-Cosmos 22 4.5 22:30:05 23° SW 22:33:14 56° WNW 22:38:28 10° N
STARLINK-1323 4.4 22:34:36 24° ESE 22:34:36 24° ESE 22:36:16 10° E
YAOGAN 11 4.0 22:31:51 35° SSE 22:33:40 86° ENE 22:38:00 10° NNW
STARLINK-1349 4.4 22:34:56 24° ESE 22:34:56 24° ESE 22:36:37 10° E
STARLINK-1336 4.4 22:35:16 24° ESE 22:35:16 24° ESE 22:36:57 10° E
STARLINK-1331 4.4 22:35:36 25° ESE 22:35:36 25° ESE 22:37:17 10° E
STARLINK-1344 4.4 22:35:54 25° ESE 22:35:54 25° ESE 22:37:37 10° E
STARLINK-1138 4.0 22:30:49 10° WNW 22:34:58 66° NNE 22:39:06 10° E
STARLINK-1343 4.4 22:36:14 25° ESE 22:36:14 25° ESE 22:37:57 10° E
STARLINK-1346 4.3 22:36:30 26° ESE 22:36:30 26° ESE 22:38:20 10° ENE
Meteor 1-24 Rocket 3.9 22:33:05 29° SSE 22:35:38 57° E 22:41:01 10° NNE
STARLINK-1328 4.3 22:36:54 26° ESE 22:36:54 26° ESE 22:38:39 10° E
STARLINK-1354 4.3 22:37:13 26° ESE 22:37:13 26° ESE 22:38:59 10° ENE
STARLINK-1347 4.3 22:37:33 26° ESE 22:37:33 26° ESE 22:39:20 10° ENE
STARLINK-1357 4.3 22:37:53 26° ESE 22:37:53 26° ESE 22:39:41 10° ENE
STARLINK-1335 4.3 22:38:12 26° ESE 22:38:12 26° ESE 22:40:01 10° ENE
STARLINK-1327 4.2 22:38:30 27° ESE 22:38:30 27° ESE 22:40:21 10° ENE
STARLINK-1233 3.6 22:33:33 10° WNW 22:37:39 60° SSW 22:39:12 34° SE
Cosmos 2266 Rocket 4.4 22:33:43 21° SW 22:37:39 55° WNW 22:43:36 10° N
CZ-4C R/B 3.8 22:36:20 14° SE 22:37:46 15° ESE 22:40:56 10° ENE
STARLINK-1340 4.2 22:38:51 27° ESE 22:38:51 27° ESE 22:40:42 10° ENE
STARLINK-1356 4.2 22:39:11 27° ESE 22:39:11 27° ESE 22:41:02 10° ENE
STARLINK-1345 4.2 22:39:28 27° ESE 22:39:28 27° ESE 22:41:21 10° ENE
STARLINK-1355 4.2 22:39:47 28° ESE 22:39:47 28° ESE 22:41:41 10° ENE
STARLINK-1371 4.0 22:39:09 36° SE 22:39:09 36° SE 22:42:23 10° ENE
STARLINK-1321 4.2 22:40:09 28° ESE 22:40:09 28° ESE 22:42:04 10° ENE
STARLINK-1358 4.2 22:40:29 28° ESE 22:40:29 28° ESE 22:42:24 10° ENE
STARLINK-1332 4.1 22:40:47 28° ESE 22:40:47 28° ESE 22:42:44 10° ENE
STARLINK-1143 3.9 22:35:47 10° WNW 22:39:56 68° NNE 22:44:04 10° E
STARLINK-1348 4.1 22:41:05 28° ESE 22:41:05 28° ESE 22:43:02 10° ENE
Cosmos 1437 3.7 22:40:11 30° ESE 22:40:24 30° E 22:43:06 10° NNE
STARLINK-1330 4.1 22:41:27 29° ESE 22:41:27 29° ESE 22:43:24 10° ENE
STARLINK-1363 4.1 22:41:46 29° ESE 22:41:46 29° ESE 22:43:45 10° ENE
STARLINK-1337 4.1 22:42:07 29° ESE 22:42:07 29° ESE 22:44:06 10° ENE
STARLINK-1342 4.0 22:42:25 30° ESE 22:42:25 30° ESE 22:44:25 10° ENE
STARLINK-1364 4.0 22:42:45 30° ESE 22:42:45 30° ESE 22:44:46 10° ENE
STARLINK-1376 4.0 22:43:04 30° ESE 22:43:04 30° ESE 22:45:06 10° ENE
STARLINK-1341 3.9 22:42:21 38° SE 22:42:21 38° SE 22:45:44 10° ENE
Resurs 1-4 Rocket 4.5 22:40:54 10° ENE 22:42:20 11° E 22:43:45 10° E
STARLINK-1360 4.0 22:43:23 31° ESE 22:43:23 31° ESE 22:45:27 10° ENE
STARLINK-1204 3.6 22:38:33 10° WNW 22:42:37 56° SSW 22:43:59 37° SSE
STARLINK-1361 4.0 22:43:43 31° ESE 22:43:43 31° ESE 22:45:47 10° ENE
STARLINK-1367 3.9 22:44:00 32° ESE 22:44:00 32° ESE 22:46:09 10° ENE
STARLINK-1366 4.0 22:44:23 31° ESE 22:44:23 31° ESE 22:46:28 10° ENE
SJ 16-02 2.6 22:39:46 10° N 22:43:54 37° ENE 22:47:11 15° ESE
STARLINK-1241 3.9 22:40:49 10° WNW 22:44:58 71° NNE 22:49:06 10° E
STARLINK-1339 3.9 22:45:37 38° SE 22:45:37 38° SE 22:48:45 10° ENE
STARLINK-1374 3.8 22:45:33 40° SE 22:45:33 40° SE 22:49:05 10° ENE
STARLINK-1238 3.7 22:43:33 10° WNW 22:47:37 53° SSW 22:48:48 38° SSE
Helios 1B rocket 3.1 22:44:48 10° NNE 22:48:45 42° E 22:50:09 31° SE
Cosmos 1674 3.4 22:48:20 30° SW 22:49:43 44° WNW 22:53:23 10° N
STARLINK-1239 3.8 22:45:47 10° WNW 22:49:56 73° NNE 22:54:05 10° ESE
STARLINK-1377 3.7 22:52:00 44° SSE 22:52:14 44° SSE 22:55:52 10° ENE
STARLINK-1201 3.8 22:48:32 10° WNW 22:52:34 49° SSW 22:53:33 40° S
Cosmos 1244 Rocket 4.4 22:51:03 28° S 22:54:31 87° E 23:00:44 10° N
STARLINK-1240 3.7 22:50:45 10° WNW 22:54:55 75° NNE 22:59:03 10° ESE
STARLINK-1353 3.6 22:55:17 45° SSE 22:55:37 46° SSE 22:59:17 10° ENE
CZ-2D R/B 4.3 22:53:34 10° NE 22:56:13 14° E 22:58:51 10° ESE
USA 215 3.4 22:52:57 22° SSE 22:57:06 51° SW 23:03:28 10° WNW
STARLINK-60 3.6 22:54:15 10° W 22:57:23 54° N 23:00:33 10° ENE
STARLINK-1206 3.8 22:53:33 10° WNW 22:57:32 46° SSW 22:58:21 40° S
COSMOS 2455 3.3 22:52:49 13° SW 22:58:06 59° NW 23:04:06 10° NNE
Cosmos 2219 3.2 22:52:56 10° NNW 22:58:40 88° ENE 23:02:17 23° SSE
STARLINK-1375 3.6 22:58:33 45° S 22:59:02 49° SSE 23:02:42 10° ENE
Cosmos 1745 Rocket 4.4 22:55:32 24° SSE 22:59:05 52° E 23:05:01 10° NNE
STARLINK-1216 3.7 22:55:43 10° WNW 22:59:53 78° NNE 23:04:02 10° ESE
STARLINK-1203 3.7 22:55:48 10° WNW 23:00:02 79° NNE 23:04:14 10° ESE
STARLINK-1352 3.4 23:01:56 48° S 23:02:17 50° SSE 23:05:50 10° ENE
STARLINK-1350 3.5 23:01:49 45° S 23:02:25 51° SSE 23:06:07 10° ENE
STARLINK-1205 3.9 22:58:32 10° WNW 23:02:29 43° SW 23:03:07 40° S
Helios 1A 3.8 23:01:35 30° SW 23:02:53 38° W 23:06:49 10° NNW
Cosmos 2297 Rocket 2.2 22:57:15 10° NNW 23:02:57 80° ENE 23:07:00 20° SE
STARLINK-1237 3.6 23:00:42 10° WNW 23:04:52 81° NNE 23:09:02 10° ESE
PSLV R/B 3.8 23:01:34 10° NNE 23:06:04 64° E 23:07:53 34° S
Lacrosse 4 Rocket 2.8 23:02:42 10° NNW 23:06:48 38° NE 23:10:47 10° ESE
STARLINK-1218 4.0 23:03:33 10° WNW 23:07:27 40° SW 23:07:55 39° SSW
ALOS 2 4.3 23:07:47 18° WSW 23:09:16 21° W 23:12:39 10° NW
STARLINK-1368 3.4 23:08:27 43° SSW 23:09:20 57° SSE 23:13:03 10° ENE
STARLINK-1202 3.6 23:05:42 10° WNW 23:09:51 85° NNE 23:14:01 10° ESE
Timation 2 Rocket 4.4 23:04:11 10° NW 23:10:07 44° WSW 23:12:55 27° SSW
Cosmos 2058 Rocket 3.4 23:05:57 10° NNW 23:10:17 52° W 23:11:58 33° SSW
Cosmos 1455 3.8 23:07:16 10° N 23:10:35 28° ENE 23:12:54 16° ESE
Meteor 2-10 Rocket 4.4 23:05:47 10° N 23:10:49 45° ENE 23:14:39 16° SE
STARLINK-1254 4.1 23:08:33 10° WNW 23:12:24 38° SW 23:12:41 37° SSW
Cosmos 1937 Rocket 4.4 23:07:27 10° NNW 23:12:31 47° ENE 23:17:36 10° SE
STARLINK-1369 3.4 23:11:47 42° SSW 23:12:47 59° SSE 23:16:32 10° ENE
Cosmos 2082 4.4 23:07:14 10° NNW 23:12:48 53° NE 23:18:18 10° SE
Meteor 1-29 3.5 23:09:43 10° NNE 23:12:58 44° E 23:13:48 36° SE
Cosmos 1898 Rocket 3.9 23:08:02 10° NNW 23:13:21 62° ENE 23:17:35 16° SE
Cosmos 1626 Rocket 3.8 23:11:50 32° SSE 23:13:38 59° E 23:17:57 10° NNE
STARLINK-1372 3.3 23:15:07 40° SW 23:16:16 62° SSE 23:20:01 10° ENE
STARLINK-1231 4.2 23:13:32 10° WNW 23:17:20 35° SW 23:17:27 35° SSW
Meteor 2-5 Rocket 4.1 23:14:12 24° SW 23:17:26 55° WNW 23:22:59 10° N
Starlink 7 placeholder 3.7 23:17:57 30° N 23:17:57 30° N 23:19:43 10° ENE
ATLAS 3B R/B 3.7 23:12:51 10° WNW 23:18:33 29° WSW 23:21:10 23° SSW
SeaSat 1 4.2 23:14:52 10° NNE 23:19:00 28° NW 23:23:08 10° W
STARLINK-1378 3.3 23:18:28 38° SW 23:19:45 65° SSE 23:23:32 10° ENE
STARLINK-1246 3.5 23:15:40 10° WNW 23:19:50 88° SSW 23:24:00 10° ESE
SL-14 R/B 3.6 23:19:11 34° SW 23:20:34 55° WNW 23:24:22 10° N
STARLINK-1232 4.3 23:18:34 10° WNW 23:22:15 33° SW 23:22:15 33° SW
IRAS Rocket 4.4 23:18:20 19° SSE 23:22:21 73° ENE 23:27:53 10° NNW
FALCON 9 DEB 3.2 23:20:07 20° WSW 23:22:22 76° NNW 23:25:50 10° ENE
STARLINK-1379 3.3 23:21:51 35° SW 23:23:16 68° SSE 23:27:03 10° ENE
STARLINK-1329 3.3 23:23:14 34° SW 23:24:43 69° SSE 23:28:31 10° ENE
STARLINK-1224 3.5 23:20:39 10° WNW 23:24:48 85° SSW 23:28:57 10° ESE
SL-16 R/B 3.4 23:20:03 10° SE 23:25:51 46° ENE 23:31:42 10° N
STARLINK-1208 4.4 23:23:34 10° W 23:27:00 31° SW 23:27:00 31° SW
STARLINK-29 3.6 23:24:06 10° W 23:27:16 56° N 23:30:26 10° ENE
STARLINK-1362 3.3 23:26:40 32° SW 23:28:17 72° SSE 23:32:06 10° ENE
Cosmos-2242 4.3 23:25:17 10° N 23:29:14 35° ENE 23:32:30 14° SE
ATLAS CENTAUR R/B 1.3 23:26:57 10° WNW 23:29:19 59° SW 23:34:04 10° SE
STARLINK-1225 3.5 23:25:38 10° WNW 23:29:48 81° SSW 23:33:57 10° ESE
Cosmos 1656 3.9 23:27:53 27° S 23:30:52 61° ESE 23:36:24 10° NE
STARLINK-1373 3.3 23:30:05 30° SW 23:31:52 76° SSE 23:35:42 10° ENE
RESURS DK-1 3.5 23:29:48 18° WSW 23:32:30 38° NW 23:36:24 10° NNE
STARLINK-1365 3.3 23:31:12 28° WSW 23:33:06 78° SSE 23:36:57 10° ENE
Cosmos 1386 Rocket 4.5 23:29:51 26° S 23:33:33 84° E 23:39:48 10° N
STARLINK-1230 3.5 23:30:37 10° WNW 23:34:46 77° SSW 23:38:54 10° ESE
STARLINK-1390 3.3 23:33:35 28° WSW 23:35:29 79° SSE 23:39:18 10° ENE
Cosmos 1697 Rocket 3.5 23:32:47 22° SSE 23:35:52 39° ESE 23:41:06 10° NE
Cosmos 1812 Rocket 3.5 23:32:07 10° N 23:36:37 90° W 23:38:55 28° S
Cosmos 2084 4.1 23:33:37 18° WSW 23:36:49 57° NW 23:41:15 10° NE
Cosmos 1626 3.3 23:36:00 24° WSW 23:37:27 34° WNW 23:40:53 10° N
SL-19 R/B 4.5 23:32:18 10° NNE 23:37:48 63° ESE 23:41:19 24° S
BREEZE-M R/B 3.1 23:32:12 10° WSW 23:38:27 57° SSE 23:41:44 10° E
DELTA 2 DEB (DPAF) 4.4 23:35:37 20° SSE 23:38:38 65° ENE 23:43:05 10° N
Cosmos 990 Rocket 3.9 23:34:20 10° NNW 23:39:37 83° WSW 23:43:09 21° SSE
STARLINK-1243 3.5 23:35:36 10° WNW 23:39:45 73° SSW 23:43:53 10° ESE
Cosmos 2227 Rocket 2.2 23:34:10 10° NNW 23:39:49 67° WSW 23:43:30 22° S
ATLAS CENTAUR R/B 3.4 23:37:22 10° W 23:40:51 24° NNW 23:44:11 10° NNE
CZ-4 R/B 4.1 23:36:34 10° N 23:41:16 58° WNW 23:43:50 25° SW
STARLINK-1236 3.5 23:40:35 10° WNW 23:44:42 69° SSW 23:48:49 10° SE
USA 81 4.3 23:42:28 23° SSE 23:45:45 66° E 23:51:01 10° N
Cosmos 1825 Rocket 4.4 23:44:53 20° SSE 23:47:24 41° E 23:51:29 10° NNE
Alouette 2 Rocket 4.0 23:42:06 10° NNW 23:47:54 73° ENE 23:50:43 20° SSE
Cosmos 1709 Rocket 4.1 23:44:10 21° S 23:48:17 67° E 23:54:24 10° NNE
Cosmos 1602 Rocket 3.5 23:47:23 30° SSW 23:49:27 78° W 23:53:48 10° N
SL-08 ROCKET BODY 4.4 23:46:46 25° SSW 23:50:19 72° WNW 23:56:11 10° N
Cosmos 2285 Rocket 4.1 23:47:04 10° NNW 23:53:30 80° ENE 23:59:50 10° SSE
STARLINK-1269 3.5 23:50:33 10° WNW 23:54:39 61° SSW 23:58:45 10° SE
